Reflectivity
-20 -20 -20 -20 -20 -20 -20 -20 -20 -20 -20 -20 -20 -20 -20 -20 -20 -20 -20 -20 -20 -20 -20 -20 -20 -20 -20 -20 -20 -20 -20 -20 -13 16 13 13 12 9 1 -1 -1 -20 17 -14 -5 -3 -20 -20 -20
-20 -20 -20 -20 -20 -20 -20 -20 -20 -20 -20 -20 -20 -20 -20 -20 -20 -20 -20 -20 -20 -20 -20 -20 -20 -20 -20 -20 -20 -20 -20 -20 -20 2 17 14 15 14 15 6 -6 13 22 27 -10 -13 -20 -20 -20
-20 -20 -20 -20 -20 -20 -20 -20 -20 -20 -20 -20 -20 -20 -20 -20 -20 -20 -20 -20 -20 -20 -20 -20 -20 -20 -20 -20 -20 -20 -20 -20 -20 -20 -7 15 15 15 15 7 -3 -18 21 23 18 -20 -20 -20 -20
-20 -20 -20 -20 -20 -20 -20 -20 -20 -20 -20 -20 -20 -20 -20 -20 -20 -20 -20 -20 -20 -20 -20 -20 -20 -20 -20 -20 -20 -20 -20 -20 -20 -20 -20 16 17 15 12 11 -0 -8 -6 20 21 -17 -20 -20 -20
-20 -20 -20 -20 -20 -20 -20 -20 -20 -20 -20 -20 -20 -20 -20 -20 -20 -20 -20 -20 -20 -20 -20 -20 -20 -20 -20 -20 -20 -20 -20 -20 -20 -8 -14 -20 11 15 15 16 12 -3 7 -6 14 -19 -20 -20 -20
-20 -20 -20 -20 -20 -20 -20 -20 -20 -20 -20 -20 -20 -20 -20 -20 -20 -20 -20 -20 -20 -20 -20 -20 -20 -20 -20 -20 -20 -20 -20 -16 -19 -20 -20 -20 -9 12 14 13 13 6 9 5 8 26 -20 -20 -20
-20 -20 -20 -20 -20 -20 -20 -20 -20 -20 -20 -20 -20 -20 -20 -20 -20 -20 -20 -20 -20 -20 -20 -20 -20 -20 -20 -20 -20 -20 -20 -20 -20 -20 -20 -20 -20 7 11 6 14 14 11 11 -12 14 4 -20 -20
-20 -20 -20 -20 -20 -20 -20 -20 -20 -20 -20 -20 -20 -20 -20 -20 -20 -20 -20 -20 -20 -20 -20 -20 -20 -20 -20 -20 -20 -20 -20 -20 -20 -20 -20 -20 -13 -10 -20 -20 0 14 12 8 -6 -4 21 -20 -20
-20 -20 -20 -20 -20 -20 -20 -20 -20 -20 -20 -20 -20 -20 -20 -20 -20 -20 -20 -20 -20 -20 -20 -20 -20 -20 -20 -20 -20 -20 -20 -20 -20 -20 -20 -20 -20 -20 -20 -20 -20 2 13 11 -2 -19 -14 -11 -20
-20 -20 -20 -20 -20 -20 -20 -20 -20 -20 -20 -20 -20 -20 -20 -20 -20 -20 -20 -20 -20 -20 -20 -20 -20 -20 -20 -20 -20 -20 -20 -20 -20 -20 -20 -20 -20 -20 -20 -15 -20 -20 10 11 10 -5 -6 21 -11
-20 -20 -20 -20 -20 -20 -20 -20 -20 -20 -20 -20 -20 -20 -20 -20 -20 -20 -20 -20 -20 -20 -20 -20 -20 -20 -20 -20 -20 -20 -20 -20 -20 -20 -20 -20 -20 -20 -20 -20 -20 -20 -19 -8 8 15 -19 -4 15
-20 -20 -20 -20 -20 -20 -20 -20 -20 -20 -20 -20 -20 -20 -20 -20 -20 -20 -20 -20 -20 -20 -20 -20 -20 -20 -20 -20 -20 -20 -20 -20 -20 -20 -20 -20 -20 -20 -20 -20 -20 -20 -20 -20 -4 16 5 11 7
-20 -20 -20 -20 -20 -20 -20 -20 -20 -20 -20 -20 -20 -20 -20 -20 -20 -20 -20 -20 -20 -20 -20 -20 -20 -20 -20 -20 -20 -20 -20 -20 -20 -20 -20 -20 -20 -20 -20 -20 -20 -20 -20 -20 -20 7 17 0 2
-20 -20 -20 -20 -20 -20 -20 -20 -20 -20 -20 -20 -20 -20 -20 -20 -20 -20 -20 -20 -20 -20 -20 -20 -20 -20 -20 -20 -20 -20 -20 -20 -20 -20 -20 -20 -20 -20 -20 -20 -20 -20 -20 -20 -20 -20 -16 3 16
-20 -20 -20 -20 -20 -20 -20 -20 -20 -20 -20 -20 -20 -20 -20 -20 -20 -20 -20 -20 -20 -20 -20 -20 -20 -20 -20 -20 -20 -20 -20 -20 -20 -20 -20 -20 -20 -20 -20 -20 -20 -20 -20 -20 -20 -20 -20 -20 3
-20 -20 -20 -20 -20 -20 -20 -20 -20 -20 -20 -20 -20 -20 -20 -20 -20 -20 -20 -20 -20 -20 -20 -20 -20 -20 -20 -20 -20 -20 -20 -20 -20 -20 -20 -20 -20 -20 -20 -20 -20 -20 -20 -20 -20 -20 -20 -20 -20
-20 -20 -20 -20 -20 -20 -20 -20 -20 -20 -20 -20 -20 -20 -20 -20 -20 -20 -20 -20 -20 -20 -20 -20 -20 -20 -20 -20 -20 -20 -20 -20 -20 -20 -20 -20 -20 -20 -20 -20 -20 -20 -20 -20 -20 -20 -20 -20 -20
-20 -20 -20 -20 -20 -20 -20 -20 -20 -20 -20 -20 -20 -20 -20 -20 -20 -20 -20 -20 -20 -20 -20 -20 -20 -20 -20 -20 -20 -20 -20 -20 -20 -20 -20 -20 -20 -20 -20 -20 -20 -20 -20 -20 -20 -20 -20 -20 -20
-20 -20 -20 -20 -20 -20 -20 -20 -20 -20 -20 -20 -20 -20 -20 -20 -20 -20 -20 -20 -20 -20 -20 -20 -20 -20 -20 -20 -20 -20 -20 -20 -20 -20 -20 -20 -20 -20 -20 -20 -20 -20 -20 -20 -20 -20 -20 -20 -20
-20 -20 -20 -20 -20 -20 -20 -20 -20 -20 -20 -20 -20 -20 -20 -20 -20 -20 -20 -20 -20 -20 -20 -20 -20 -20 -20 -20 -20 -20 -20 -20 -20 -20 -20 -20 -20 -20 -20 -20 -20 -20 -20 -20 -20 -20 -20 -20 -20
-20 -20 -20 -20 -20 -20 -20 -20 -20 -20 -20 -20 -20 -20 -20 -20 -20 -20 -20 -20 -20 -20 -20 -20 -20 -20 -20 -20 -20 -20 -20 -20 -20 -20 -20 -20 -20 -20 -20 -20 -20 -20 -20 -20 -20 -20 -20 -17 -20
-20 -20 -20 -20 -20 -20 -20 -20 -20 -20 -20 -20 -20 -20 -20 -20 -20 -20 -20 -20 -20 -20 -20 -20 -20 -20 -20 -20 -20 -20 -20 -20 -20 -20 -20 -20 -20 -20 -20 -20 -20 -20 -20 -20 -20 -20 -20 -20 -20
-20 -20 -20 -20 -20 -20 -20 -20 -20 -20 -20 -20 -20 -20 -20 -20 -20 -20 -20 -20 -20 -20 -20 -20 -20 -20 -20 -20 -20 -20 -20 -20 -20 -20 -20 -20 -20 -20 -20 -20 -20 -20 -20 -20 -20 -20 -20 -20 -20
-20 -20 -20 -20 -20 -20 -20 -20 -20 -20 -20 -20 -20 -20 -20 -20 -20 -20 -20 -20 -20 -20 -20 -20 -20 -20 -20 -20 -20 -20 -20 -20 -20 -20 -20 -20 -20 -20 -20 -20 -20 -20 -20 -20 -20 -20 -20 -20 -20
-20 -20 -20 -20 -20 -20 -20 -20 -20 -20 -20 -20 -20 -20 -20 -20 -20 -20 -20 -20 -20 -20 -20 -20 -20 -20 -20 -20 -20 -20 -20 -20 -20 -20 -20 -20 -20 -20 -20 -20 -20 -20 -20 -20 -20 -20 -20 -20 -20
-20 -20 -20 -20 -20 -20 -20 -20 -20 -20 -20 -20 -20 -20 -20 -20 -20 -20 -20 -20 -20 -20 -20 -20 -20 -20 -20 -20 -20 -20 -20 -20 -20 -20 -20 -20 -20 -20 -20 -20 -20 -20 -20 -20 -20 -20 -20 -20 -20
-20 -20 -20 -20 -20 -20 -20 -20 -20 -20 -20 -20 -20 -20 -20 -20 -20 -20 -20 -20 -20 -20 -20 -20 -20 -20 -20 -20 -20 -20 -20 -20 -20 -20 -20 -20 -20 -20 -20 -20 -20 -20 -20 -20 -20 -20 -20 -20 -20
-20 -20 -20 -20 -20 -20 -20 -20 -20 -20 -20 -20 -20 -20 -20 -20 -20 -20 -20 -20 -20 -20 -20 -20 -20 -20 -20 -20 -20 -20 -20 -20 -20 -20 -20 -20 -20 -20 -20 -20 -20 -20 -20 -20 -20 -20 -20 -20 -20
-20 -20 -20 -20 -20 -20 -20 -20 -20 -20 -20 -20 -20 -20 -20 -20 -20 -20 -20 -20 -20 -20 -20 -20 -20 -20 -20 -20 -20 -20 -20 -20 -20 -20 -20 -20 -20 -20 -20 -20 -20 -20 -20 -20 -20 -20 -20 -20 -20
-20 -20 -20 -20 -20 -20 -20 -20 -20 -20 -20 -20 -20 -20 -20 -20 -20 -20 -20 -20 -20 -20 -20 -20 -20 -20 -20 -20 -20 -20 -20 -20 -20 -20 -20 -20 -20 -20 -20 -20 -20 -20 -20 -20 -20 -20 -20 -20 -20
Wind_Speed
8 6 2 5 7 7 2 2 0 4 3 3 2 1 7 5 1 3 4 6 7 7 9 11 17 18 20 20 21 21 21 22 21 21 22 23 23 22 18 18 13 6 4 10 14 14 13 15 14
4 3 5 4 7 4 2 2 4 2 6 8 6 4 5 4 2 5 3 4 7 7 9 10 16 17 19 20 20 20 21 21 21 21 22 22 22 23 21 20 19 14 4 9 11 13 12 13 13
3 5 6 6 4 4 6 4 5 3 4 1 4 5 3 4 3 4 3 5 8 10 10 11 15 16 17 18 19 20 20 20 21 21 21 22 22 22 23 22 19 18 7 7 11 11 9 10 10
4 5 6 6 3 0 3 7 5 7 2 3 4 8 3 3 1 6 6 6 9 10 10 13 16 16 16 17 18 19 20 20 20 22 22 22 23 23 23 23 22 18 18 2 8 11 9 6 8
5 4 6 5 2 0 1 3 5 4 3 2 1 6 4 3 9 9 7 7 8 8 9 10 16 15 17 18 18 19 20 21 21 20 21 22 21 22 22 23 22 21 17 16 3 9 10 8 8
6 3 5 3 3 1 1 3 4 3 3 3 5 7 4 6 8 8 8 8 8 8 9 10 14 15 17 17 18 19 19 19 20 20 20 21 21 22 22 23 23 23 19 18 15 8 9 9 7
8 5 3 5 5 2 5 4 4 5 4 3 8 6 4 7 8 9 9 8 8 8 9 9 9 11 15 16 18 18 19 18 20 20 20 21 21 22 22 23 23 23 21 19 16 10 10 8 6
6 6 5 1 7 5 5 2 1 2 3 2 1 4 4 6 10 9 8 7 8 8 8 8 9 9 8 9 17 17 17 17 19 20 20 20 19 21 21 21 22 23 23 21 20 19 7 9 6
2 7 4 8 8 6 4 4 1 1 5 2 1 2 2 14 11 7 4 4 4 6 7 7 7 8 7 8 8 11 14 15 17 16 20 16 10 13 16 18 21 22 22 23 21 20 20 9 7
6 5 8 4 5 5 7 3 6 3 2 3 1 2 6 11 9 7 4 2 2 4 5 5 5 6 6 6 7 8 8 8 10 12 13 9 11 12 12 14 19 19 21 21 22 21 18 13 2
4 4 4 2 2 5 7 4 2 7 4 7 8 8 10 7 7 6 3 3 3 2 4 5 5 5 5 4 4 4 4 6 7 13 10 10 8 8 9 7 8 10 15 9 11 11 8 9 5
8 4 2 3 3 5 8 7 4 5 3 1 5 14 11 10 9 7 6 4 4 3 3 4 5 5 5 3 4 5 5 6 6 8 11 8 6 9 8 7 10 8 8 10 8 6 9 9 9
6 3 4 4 7 6 6 3 3 7 6 2 8 11 13 10 8 5 4 5 5 3 3 4 5 5 5 6 4 5 6 6 7 7 9 8 8 8 8 8 8 8 9 8 8 7 7 8 8
3 6 4 5 4 4 2 2 1 2 7 6 11 11 10 11 9 4 4 3 3 4 3 3 5 5 6 6 7 5 5 6 6 7 8 10 8 7 8 8 9 8 9 9 9 8 6 7 7
5 7 3 6 2 3 1 4 8 2 6 9 11 9 8 9 9 10 8 6 5 2 2 3 4 5 6 6 6 6 6 7 7 7 9 10 9 9 8 7 8 9 9 10 9 9 8 5 6
5 4 4 2 1 1 1 6 2 6 10 9 9 8 9 11 10 8 8 7 7 5 3 3 4 4 5 6 6 5 6 6 6 6 7 11 11 11 8 8 8 9 8 8 9 8 9 8 7
6 4 2 1 1 1 3 6 2 5 7 9 10 10 10 9 9 9 8 8 8 7 6 4 3 4 5 5 5 7 9 7 6 6 7 10 10 11 8 7 8 10 9 8 9 8 7 7 8
7 4 1 3 1 1 2 11 5 5 7 10 10 11 12 12 16 11 11 8 8 7 5 4 3 3 3 3 3 3 6 7 7 7 8 11 9 11 9 8 10 9 8 10 10 10 9 4 9
7 5 4 1 1 1 5 8 13 8 6 11 12 12 13 16 7 9 10 10 8 7 7 6 4 2 1 2 2 3 3 4 7 7 10 10 9 11 11 8 9 8 8 9 11 8 10 6 12
5 4 3 1 1 1 3 14 14 9 11 16 17 15 14 8 8 11 12 11 11 10 8 7 5 4 3 2 2 2 2 4 5 5 8 9 10 11 9 9 8 9 7 11 12 12 7 5 7
4 4 4 2 1 2 5 9 6 2 4 5 8 9 11 16 15 14 14 14 11 11 11 9 8 6 4 4 4 3 3 2 2 4 5 8 9 10 10 10 8 9 8 8 10 11 12 7 4
4 1 4 4 3 3 3 7 6 3 7 7 8 10 10 13 13 14 16 13 13 12 10 9 8 8 5 5 4 4 3 3 2 2 3 5 8 9 9 9 9 9 7 9 9 9 8 8 8
5 2 4 3 4 3 3 1 8 5 7 10 9 11 12 12 14 16 17 16 13 11 11 9 9 7 6 6 5 5 5 5 4 3 4 5 6 7 7 8 7 7 6 8 9 9 10 7 6
9 7 7 4 3 2 3 4 4 6 9 5 3 6 8 9 10 10 10 10 11 9 10 10 10 9 8 7 7 7 8 7 5 4 3 3 3 4 7 6 7 7 7 8 7 8 9 8 7
6 5 3 5 3 7 3 2 10 10 8 6 4 2 5 6 8 11 15 14 11 13 12 11 12 11 10 9 8 8 7 7 7 6 4 4 2 2 5 5 6 6 7 7 7 7 7 7 6
4 5 7 9 5 3 4 9 11 8 7 7 6 5 3 7 8 11 12 13 13 13 13 12 12 10 11 10 10 8 8 5 5 5 4 3 3 2 3 4 5 6 6 6 6 6 6 6 5
6 2 4 9 0 2 4 8 13 7 10 8 10 5 9 10 10 11 8 10 12 13 14 15 13 11 12 12 10 9 8 8 7 6 5 3 3 3 3 3 4 5 5 6 6 5 6 6 6
4 1 4 3 3 6 5 6 7 4 9 5 7 11 13 7 8 10 11 12 10 10 10 11 12 14 11 11 11 10 10 9 7 7 7 6 4 3 3 2 3 4 5 5 5 4 5 5 5
2 1 4 2 3 6 2 8 10 11 7 7 8 9 7 7 9 11 12 12 11 8 11 12 12 13 12 12 10 11 10 10 9 8 8 7 5 5 4 2 2 3 4 5 4 4 4 5 5
3 6 5 6 7 3 1 12 5 9 5 5 8 7 4 7 9 9 9 9 11 13 13 15 13 13 12 11 11 12 11 11 11 10 9 8 8 6 5 4 2 1 2 3 4 3 3 4 5
Wind_Direction
334 327 24 40 59 64 76 111 24 124 93 33 104 112 106 48 46 108 142 32 20 14 359 353 18 20 19 18 16 16 17 19 18 18 19 17 19 16 20 17 10 32 88 103 102 97 91 85 75
335 346 46 81 82 95 178 185 155 130 140 142 91 88 47 84 89 125 144 29 31 21 7 360 20 23 23 21 18 18 18 18 18 20 21 18 19 20 18 18 16 3 110 120 108 99 101 97 93
344 27 69 77 88 137 153 185 142 111 148 105 110 49 90 111 106 115 99 67 43 28 12 9 21 24 26 25 22 21 18 19 18 22 21 18 19 22 21 18 13 14 4 129 116 110 100 103 105
26 21 49 73 89 283 142 160 143 128 77 61 109 78 70 28 102 126 126 75 56 32 16 8 21 21 26 27 25 23 22 22 20 18 21 20 18 18 23 22 18 11 12 51 130 122 110 102 137
35 56 68 77 103 243 43 152 142 123 118 104 135 144 102 59 104 108 93 69 61 41 27 18 21 19 20 24 26 27 26 25 23 20 20 20 18 19 20 21 21 18 8 8 157 137 129 121 121
52 83 68 152 156 41 149 169 137 111 138 155 92 123 138 140 131 127 108 81 56 40 27 27 17 19 20 21 24 25 30 31 26 21 17 20 19 20 20 18 20 18 16 11 5 170 151 139 142
101 76 112 123 139 159 192 155 165 145 136 186 144 126 135 177 147 132 117 98 76 51 35 20 16 15 17 17 23 24 27 30 27 23 21 18 20 18 19 19 17 19 17 15 6 340 168 156 155
98 93 107 174 177 192 167 109 135 119 150 110 160 172 185 176 150 130 123 108 77 53 44 27 11 11 13 16 19 20 27 28 24 24 22 19 16 13 12 15 16 16 17 16 14 3 210 161 152
123 72 150 184 167 152 170 134 323 97 120 86 47 123 349 134 141 142 137 111 84 65 46 35 18 12 5 20 18 21 23 25 21 25 27 20 11 5 4 6 12 14 14 15 17 13 356 158 157
65 92 182 167 150 162 160 143 160 120 117 183 181 54 121 143 154 154 159 114 65 62 63 43 36 24 16 22 8 19 23 25 26 32 32 24 16 7 3 5 7 9 12 13 14 13 12 4 233
20 112 160 43 95 120 126 112 160 130 246 219 191 165 157 160 165 164 157 115 101 90 68 46 43 46 46 39 25 23 22 24 31 34 32 21 20 11 7 4 0 0 3 9 6 2 7 354 327
91 44 53 123 89 108 148 119 184 209 210 0 196 157 164 170 180 184 174 157 146 122 85 50 44 54 54 48 37 37 39 40 40 34 25 24 22 13 13 6 4 3 356 357 1 351 351 353 342
78 136 55 78 81 80 123 113 222 244 231 42 140 154 171 175 185 179 155 144 144 123 96 59 47 53 58 60 50 47 47 44 39 37 31 27 25 21 8 3 2 1 356 353 349 351 354 352 357
102 93 105 40 63 66 123 143 58 289 138 137 158 175 180 180 181 158 174 186 163 139 121 99 63 49 49 54 56 56 54 51 49 41 30 27 28 23 19 6 2 358 354 351 350 341 345 355 352
148 81 77 24 22 68 50 261 233 161 147 158 176 182 190 201 184 194 184 183 180 154 128 65 61 49 57 63 55 54 47 45 42 40 37 37 30 22 22 16 6 352 353 354 347 350 349 347 353
69 61 103 343 22 27 87 272 336 162 160 180 191 192 195 205 209 201 180 168 167 156 137 77 46 45 52 65 66 66 56 52 43 38 35 35 31 28 29 20 5 352 1 2 352 352 348 351 355
17 164 141 216 35 9 157 266 142 179 182 200 203 208 210 205 208 201 187 175 167 165 156 129 74 50 44 63 65 64 58 54 44 40 36 34 33 31 33 23 11 1 7 4 355 345 355 348 355
181 149 161 177 323 169 229 261 259 202 201 219 216 213 211 211 213 189 180 172 163 163 154 139 101 66 73 87 82 71 61 50 41 36 33 29 28 28 30 25 19 14 10 8 359 349 353 342 350
111 106 121 107 333 212 238 273 266 227 220 231 229 221 214 215 198 169 176 170 163 166 163 164 154 113 96 75 79 61 56 39 46 41 34 33 30 29 30 29 23 17 23 9 5 349 352 4 360
84 107 135 83 248 204 353 279 259 213 223 220 220 221 214 188 185 179 177 178 182 176 179 171 168 159 124 113 97 80 92 68 58 43 41 33 33 31 33 28 25 21 17 21 18 15 360 344 17
38 140 175 142 159 63 318 285 286 219 253 244 224 225 217 201 190 188 185 188 182 185 182 178 172 165 150 131 121 101 91 75 40 36 40 30 34 32 31 28 27 24 25 20 18 17 20 358 346
129 248 105 81 87 229 2 279 294 292 281 239 231 211 210 196 193 188 187 186 190 192 179 175 171 168 162 157 157 171 153 130 106 82 67 53 42 38 32 31 29 28 26 24 15 18 21 16 9
163 132 96 88 94 54 337 64 270 3 287 260 213 217 214 200 190 186 189 190 188 174 177 176 172 175 163 163 154 140 126 118 135 124 100 74 57 46 38 34 32 33 31 27 22 22 28 24 21
139 72 50 54 83 346 230 169 247 199 212 277 204 234 211 194 192 185 183 175 177 167 171 174 176 182 174 174 171 167 154 150 147 143 120 94 80 50 41 39 34 35 32 27 22 24 30 28 24
54 77 1 353 6 230 2 10 253 260 227 221 232 352 211 181 180 181 182 181 175 177 177 178 182 186 183 182 183 180 169 165 157 154 145 133 107 59 37 36 38 34 29 28 26 32 36 27 29
188 149 162 197 200 252 17 228 247 237 238 244 248 266 260 205 204 202 198 189 183 181 180 180 183 186 186 187 191 188 179 175 170 166 152 133 117 107 58 49 45 40 37 31 28 30 30 26 25
216 179 175 103 8 24 222 279 294 276 265 239 242 234 235 223 201 202 192 191 184 186 187 185 183 191 189 192 190 192 188 183 180 170 163 158 149 143 93 66 58 51 43 36 31 36 29 20 17
138 136 78 359 178 250 278 277 238 283 244 281 249 236 237 210 202 198 199 196 192 192 185 183 189 193 190 189 192 194 194 191 182 173 182 182 171 162 142 88 58 51 48 42 33 36 31 27 24
104 213 36 118 146 191 259 254 218 227 202 219 244 239 229 214 209 202 200 196 190 181 182 193 195 193 192 190 188 190 196 194 187 189 189 188 181 182 176 146 77 47 36 29 35 38 29 21 20
167 202 164 145 238 227 153 256 209 225 228 218 263 271 241 213 210 207 195 179 187 194 193 198 197 199 198 190 187 193 192 192 196 198 193 187 190 188 182 171 159 112 48 23 13 12 3 8 6